TimePST,TemperatureF,Dew PointF,Humidity,Sea Level PressureIn,VisibilityMPH,Wind Direction,Wind SpeedMPH,Gust SpeedMPH,PrecipitationIn,Events,Conditions,WindDirDegrees,DateUTC
12:15 AM,23.0,8.6,54,30.33,10.0,SE,3.5,-,N/A,,Clear,140,2013-01-05 08:15:00
12:35 AM,24.8,8.6,50,30.33,10.0,South,13.8,21.9,N/A,,Clear,180,2013-01-05 08:35:00
12:55 AM,21.2,3.2,46,30.34,10.0,Calm,Calm,-,N/A,,Clear,0,2013-01-05 08:55:00
1:15 AM,23.0,6.8,50,30.34,10.0,South,20.7,-,N/A,,Clear,180,2013-01-05 09:15:00
1:35 AM,19.4,5.0,54,30.35,10.0,SE,9.2,18.4,N/A,,Clear,130,2013-01-05 09:35:00
1:55 AM,21.2,6.8,54,30.35,10.0,South,18.4,26.5,N/A,,Clear,180,2013-01-05 09:55:00
2:15 AM,21.2,6.8,54,30.35,10.0,South,20.7,28.8,N/A,,Clear,180,2013-01-05 10:15:00
2:35 AM,19.4,3.2,49,30.34,10.0,South,21.9,25.3,N/A,,Clear,180,2013-01-05 10:35:00
2:55 AM,19.4,5.0,54,30.34,10.0,South,21.9,32.2,N/A,,Clear,170,2013-01-05 10:55:00
3:15 AM,19.4,5.0,54,30.34,10.0,South,21.9,32.2,N/A,,Clear,180,2013-01-05 11:15:00
3:35 AM,19.4,5.0,54,30.34,10.0,South,18.4,24.2,N/A,,Clear,170,2013-01-05 11:35:00
3:55 AM,19.4,5.0,54,30.34,10.0,ENE,3.5,-,N/A,,Clear,70,2013-01-05 11:55:00
4:15 AM,21.2,6.8,54,30.34,10.0,ESE,10.4,24.2,N/A,,Clear,110,2013-01-05 12:15:00
4:35 AM,19.4,3.2,49,30.34,10.0,SE,8.1,19.6,N/A,,Clear,130,2013-01-05 12:35:00
4:55 AM,17.6,3.2,53,30.33,10.0,SE,11.5,-,N/A,,Clear,130,2013-01-05 12:55:00
5:15 AM,17.6,5.0,58,30.33,10.0,SE,9.2,-,N/A,,Clear,130,2013-01-05 13:15:00
5:35 AM,19.4,6.8,58,30.32,10.0,SSE,13.8,31.1,N/A,,Clear,160,2013-01-05 13:35:00
5:55 AM,19.4,5.0,54,30.31,10.0,South,26.5,33.4,N/A,,Clear,170,2013-01-05 13:55:00
6:15 AM,19.4,5.0,54,30.32,10.0,South,20.7,31.1,N/A,,Clear,170,2013-01-05 14:15:00
6:35 AM,19.4,5.0,54,30.32,10.0,South,21.9,27.6,N/A,,Clear,170,2013-01-05 14:35:00
6:55 AM,19.4,5.0,54,30.32,10.0,SSE,17.3,24.2,N/A,,Clear,150,2013-01-05 14:55:00
7:15 AM,21.2,5.0,50,30.32,10.0,South,24.2,31.1,N/A,,Clear,170,2013-01-05 15:15:00
7:55 AM,21.2,5.0,50,30.32,10.0,South,20.7,28.8,N/A,,Clear,170,2013-01-05 15:55:00
8:15 AM,21.2,5.0,50,30.31,10.0,South,26.5,35.7,N/A,,Clear,180,2013-01-05 16:15:00
8:55 AM,21.2,5.0,50,30.32,10.0,South,29.9,38.0,N/A,,Clear,180,2013-01-05 16:55:00
9:15 AM,23.0,6.8,50,30.31,10.0,South,25.3,41.4,N/A,,Clear,190,2013-01-05 17:15:00
9:35 AM,23.0,6.8,50,30.31,10.0,South,28.8,40.3,N/A,,Clear,180,2013-01-05 17:35:00
9:55 AM,23.0,6.8,50,30.32,10.0,South,27.6,38.0,N/A,,Clear,180,2013-01-05 17:55:00
10:15 AM,24.8,6.8,46,30.32,10.0,South,27.6,42.6,N/A,,Clear,180,2013-01-05 18:15:00
10:35 AM,24.8,6.8,46,30.32,10.0,SSE,21.9,33.4,N/A,,Partly Cloudy,160,2013-01-05 18:35:00
10:55 AM,24.8,6.8,46,30.30,10.0,South,31.1,40.3,N/A,,Scattered Clouds,180,2013-01-05 18:55:00
11:15 AM,24.8,6.8,46,30.29,10.0,South,29.9,41.4,N/A,,Scattered Clouds,180,2013-01-05 19:15:00
11:35 AM,26.6,6.8,43,30.29,10.0,South,32.2,46.0,N/A,,Scattered Clouds,180,2013-01-05 19:35:00
11:55 AM,26.6,6.8,43,30.26,10.0,South,27.6,38.0,N/A,,Clear,180,2013-01-05 19:55:00
12:15 PM,26.6,6.8,43,30.25,10.0,South,26.5,39.1,N/A,,Clear,180,2013-01-05 20:15:00
12:35 PM,26.6,6.8,43,30.24,10.0,South,34.5,44.9,N/A,,Clear,190,2013-01-05 20:35:00
12:55 PM,26.6,6.8,43,30.25,10.0,South,33.4,43.7,N/A,,Clear,190,2013-01-05 20:55:00
1:15 PM,26.6,6.8,43,30.24,10.0,South,36.8,50.6,N/A,,Clear,190,2013-01-05 21:15:00
1:35 PM,26.6,6.8,43,30.25,10.0,South,20.7,33.4,N/A,,Clear,180,2013-01-05 21:35:00
1:55 PM,28.4,6.8,40,30.25,10.0,South,18.4,35.7,N/A,,Clear,170,2013-01-05 21:55:00
2:15 PM,26.6,6.8,43,30.25,10.0,South,27.6,33.4,N/A,,Clear,180,2013-01-05 22:15:00
3:15 PM,26.6,6.8,43,30.25,10.0,South,27.6,32.2,N/A,,Scattered Clouds,190,2013-01-05 23:15:00
3:35 PM,26.6,6.8,43,30.24,10.0,South,27.6,36.8,N/A,,Scattered Clouds,180,2013-01-05 23:35:00
3:55 PM,26.6,6.8,43,30.24,10.0,South,24.2,31.1,N/A,,Mostly Cloudy,180,2013-01-05 23:55:00
4:15 PM,26.6,6.8,43,30.24,10.0,South,21.9,32.2,N/A,,Overcast,180,2013-01-06 00:15:00
4:35 PM,26.6,6.8,43,30.24,10.0,South,20.7,31.1,N/A,,Overcast,180,2013-01-06 00:35:00
4:55 PM,26.6,6.8,43,30.25,10.0,South,23.0,32.2,N/A,,Overcast,190,2013-01-06 00:55:00
5:15 PM,26.6,6.8,43,30.24,10.0,South,24.2,31.1,N/A,,Overcast,180,2013-01-06 01:15:00
5:35 PM,26.6,6.8,43,30.23,10.0,South,19.6,31.1,N/A,,Overcast,180,2013-01-06 01:35:00
5:55 PM,26.6,6.8,43,30.22,10.0,South,23.0,32.2,N/A,,Overcast,180,2013-01-06 01:55:00
6:15 PM,26.6,6.8,43,30.22,10.0,South,20.7,33.4,N/A,,Overcast,190,2013-01-06 02:15:00
6:35 PM,28.4,6.8,40,30.22,10.0,South,20.7,28.8,N/A,,Overcast,180,2013-01-06 02:35:00
6:55 PM,28.4,6.8,40,30.22,10.0,South,18.4,25.3,N/A,,Overcast,180,2013-01-06 02:55:00
7:15 PM,28.4,6.8,40,30.22,10.0,South,18.4,31.1,N/A,,Overcast,180,2013-01-06 03:15:00
7:35 PM,28.4,6.8,40,30.21,10.0,South,23.0,-,N/A,,Overcast,180,2013-01-06 03:35:00
7:55 PM,28.4,6.8,40,30.21,10.0,South,23.0,26.5,N/A,,Overcast,180,2013-01-06 03:55:00
8:15 PM,28.4,6.8,40,30.21,10.0,SSE,20.7,31.1,N/A,,Overcast,160,2013-01-06 04:15:00
8:35 PM,26.6,6.8,43,30.21,10.0,South,21.9,26.5,N/A,,Overcast,170,2013-01-06 04:35:00
8:55 PM,26.6,6.8,43,30.20,10.0,SSE,20.7,25.3,N/A,,Mostly Cloudy,160,2013-01-06 04:55:00
9:15 PM,26.6,6.8,43,30.20,10.0,South,19.6,29.9,N/A,,Overcast,170,2013-01-06 05:15:00
9:35 PM,28.4,8.6,43,30.21,10.0,South,17.3,24.2,N/A,,Overcast,180,2013-01-06 05:35:00
9:55 PM,28.4,8.6,43,30.21,10.0,South,18.4,23.0,N/A,,Overcast,170,2013-01-06 05:55:00
10:15 PM,28.4,8.6,43,30.21,10.0,South,18.4,29.9,N/A,,Overcast,170,2013-01-06 06:15:00
10:35 PM,28.4,8.6,43,30.20,10.0,South,21.9,27.6,N/A,,Overcast,170,2013-01-06 06:35:00
10:55 PM,28.4,8.6,43,30.20,10.0,South,23.0,29.9,N/A,,Overcast,170,2013-01-06 06:55:00
11:15 PM,28.4,8.6,43,30.19,10.0,South,24.2,28.8,N/A,,Overcast,170,2013-01-06 07:15:00
11:35 PM,28.4,8.6,43,30.19,10.0,South,24.2,34.5,N/A,,Overcast,180,2013-01-06 07:35:00
11:55 PM,28.4,8.6,43,30.18,10.0,South,24.2,31.1,N/A,,Overcast,170,2013-01-06 07:55:00